Weather observations for the past three days for
Garrett County Airport
Imperial (Metric)
Date Time (edt) Wind (mph) Vis. (mi.) Weather Sky Cond. Temperature (ºF) Relative Humidity Wind Chill (°F) Heat Index (°F) Pressure Precipitation (in)
Air Dwpt 6 hour altimeter (in) sea level (mb) 1 hr 3 hr 6 hr
Max. Min.
17 06:45 Vrbl 5 10.00 Mostly Cloudy BKN120 66.2 66.2 100% 30.01 0.0
17 06:25 SW 6 G 14 10.00 Fair CLR 66.2 66.2 100% 30.01 0.0
17 06:05 Vrbl 6 G 13 10.00 Fair CLR 66.2 66.2 100% 30 0.0
17 05:45 W 6 10.00 Fair CLR 66.2 64.4 94% 30 0.0
17 05:25 Vrbl 6 G 14 10.00 Fair CLR 66.2 64.4 94% 29.99 0.0
17 05:05 Vrbl 6 G 14 10.00 Fair CLR 66.2 64.4 94% 29.99 0.0
17 04:45 W 8 G 16 10.00 Fair CLR 66.2 64.4 94% 29.99 0.0
17 04:25 W 8 10.00 Fair CLR 66.2 64.4 94% 29.99 0.0
17 04:05 SW 8 10.00 Fair CLR 66.2 64.4 94% 29.99 0.0
17 03:45 SW 9 10.00 Fair CLR 68 64.4 88% 29.99 0.0
17 03:25 SW 8 10.00 Fair CLR 68 64.4 88% 29.99 0.0
17 03:05 SW 8 G 16 10.00 Fair CLR 68 64.4 88% 29.99 0.0
17 02:45 SW 9 10.00 Fair CLR 68 64.4 88% 30 0.0
17 02:25 SW 9 G 15 10.00 Fair CLR 68 64.4 88% 30 0.0
17 02:05 SW 9 G 15 10.00 Fair CLR 68 64.4 88% 30 0.0
17 01:45 SW 10 10.00 Fair CLR 66.2 64.4 94% 30 0.0
17 01:25 SW 9 10.00 Fair CLR 68 66.2 94% 30.01 0.0
17 01:05 SW 9 10.00 Fair CLR 68 66.2 94% 30 0.0
17 00:45 SW 12 G 17 10.00 Fair CLR 68 64.4 88% 30.01 0.0
17 00:25 SW 10 G 17 10.00 Fair CLR 68 66.2 94% 30 0.0
17 00:05 SW 9 G 20 10.00 Fair CLR 68 66.2 94% 30 0.0
16 23:45 SW 9 G 18 10.00 Fair CLR 68 66.2 94% 30 0.0
16 23:25 SW 12 10.00 Fair CLR 68 66.2 94% 30 0.0
16 23:05 SW 12 10.00 Fair CLR 68 66.2 94% 30 0.0
16 22:45 SW 10 G 17 10.00 Fair CLR 68 66.2 94% 30.01 0.0
16 22:25 SW 9 G 20 10.00 Fair CLR 68 66.2 94% 30.02 0.0
16 22:05 SW 12 G 18 10.00 Fair CLR 68 66.2 94% 30.01 0.0
16 21:45 SW 10 G 17 10.00 Fair CLR 68 66.2 94% 30.01 0.0
16 21:25 SW 13 10.00 Fair CLR 68 66.2 94% 30.01 0.0
16 21:05 SW 12 10.00 Fair CLR 68 66.2 94% 30.01 0.0
16 20:45 SW 9 10.00 Fair CLR 68 66.2 94% 30.01 0.0
16 20:25 SW 8 10.00 Fair CLR 68 66.2 94% 30 0.0
16 20:05 SW 9 10.00 Fair CLR 68 68 100% 30 0.0
16 19:45 SW 10 10.00 Fair CLR 69.8 68 94% 30.01 0.0
16 19:25 S 15 10.00 Fair CLR 69.8 68 94% 30 0.0
16 19:05 SW 14 10.00 Fair CLR 69.8 68 94% 30.01 0.0
16 18:45 SW 14 G 24 10.00 Fair CLR 68 66.2 94% 30.02 0.0
16 18:25 SW 14 G 20 3.00 Thunderstorm in Vicinity Rain Fog/Mist FEW065 68 66.2 94% 30.02 0.0
16 18:05 SW 13 G 24 1.50 Thunderstorm in Vicinity Fog/Mist SCT003 SCT027 BKN060 68 64.4 88% 30.04 0.0
16 17:45 SW 13 G 22 2.00 Thunderstorm in Vicinity Rain Fog/Mist FEW003 SCT055 SCT070 73.4 69.8 89% 30.03 0.0
16 17:25 Vrbl 5 10.00 Thunderstorm in Vicinity FEW055 FEW070 FEW090 78.8 66.2 65% 81 29.99 0.0
16 17:05 W 6 10.00 Thunderstorm in Vicinity CLR 80.6 66.2 62% 83 29.98 0.0
16 16:45 Vrbl 5 10.00 Fair CLR 82.4 66.2 58% 85 29.97 0.0
16 16:25 W 7 10.00 Fair CLR 82.4 66.2 58% 85 29.98 0.0
16 16:05 W 8 G 15 10.00 Fair CLR 82.4 66.2 58% 85 29.98 0.0
16 15:45 Vrbl 3 G 14 10.00 Fair CLR 78.8 68 70% 81 29.99 0.0
16 15:25 W 12 5.00 Light Rain Haze CLR 80.6 64.4 58% 82 29.99 0.0
16 15:05 W 13 G 23 10.00 Fair CLR 84.2 62.6 48% 85 29.99 0.0
16 14:45 SW 12 G 17 10.00 Fair CLR 86 64.4 49% 87 29.99 0.0
16 14:25 W 12 G 20 10.00 A Few Clouds FEW046 FEW055 86 62.6 46% 87 29.99 0.0
16 14:05 W 8 G 18 10.00 Fair CLR 86 64.4 49% 87 30 0.0
16 13:45 W 13 G 20 10.00 Fair CLR 86 64.4 49% 87 30 0.0
16 13:25 SW 14 G 21 10.00 A Few Clouds FEW046 84.2 64.4 51% 86 30 0.0
16 13:05 W 9 G 20 10.00 A Few Clouds FEW045 84.2 62.6 48% 85 30.01 0.0
16 12:45 W 9 G 20 10.00 Fair CLR 82.4 62.6 51% 83 30.01 0.0
16 12:25 W 12 G 21 10.00 Fair CLR 82.4 62.6 51% 83 30.02 0.0
16 12:05 W 13 G 25 10.00 A Few Clouds FEW039 FEW046 82.4 62.6 51% 83 30.02 0.0
16 11:45 W 12 G 22 10.00 A Few Clouds FEW039 82.4 64.4 55% 84 30.02 0.0
16 11:25 W 10 G 20 10.00 A Few Clouds FEW036 82.4 66.2 58% 85 30.02 0.0
16 11:05 W 12 G 23 10.00 Fair CLR 80.6 66.2 62% 83 30.01 0.0
16 10:45 W 8 G 20 10.00 Fair CLR 80.6 68 66% 83 30.01 0.0
16 10:25 W 8 G 17 10.00 Fair CLR 80.6 68 66% 83 30.01 0.0
16 10:05 SW 17 G 24 10.00 Fair CLR 78.8 66.2 65% 81 30 0.0
16 09:45 SW 15 G 21 10.00 Fair CLR 77 68 74% 79 29.99 0.0
16 09:25 SW 17 G 23 10.00 Fair CLR 77 68 74% 79 29.99 0.0
16 09:05 SW 16 10.00 Fair CLR 75.2 69.8 83% 75 29.98 0.0
16 08:45 SW 14 G 21 10.00 Fair CLR 75.2 68 78% 76 29.98 0.0
16 08:25 SW 8 10.00 Fair CLR 73.4 68 83% 29.99 0.0
16 08:05 Vrbl 7 G 14 10.00 Fair CLR 75.2 68 78% 76 30 0.0
16 07:45 SW 7 G 14 10.00 Fair CLR 73.4 68 83% 30 0.0
16 07:25 SW 8 G 15 10.00 A Few Clouds FEW020 FEW027 FEW037 73.4 66.2 78% 30 0.0
16 07:05 SW 9 10.00 Mostly Cloudy SCT021 SCT029 BKN049 71.6 66.2 83% 30 0.0
16 06:45 Vrbl 7 G 14 10.00 Mostly Cloudy SCT022 BKN030 BKN034 71.6 66.2 83% 30.01 0.0
16 06:25 Vrbl 7 G 15 10.00 Mostly Cloudy BKN033 BKN044 BKN050 71.6 66.2 83% 30 0.0
16 06:05 Vrbl 7 G 17 10.00 Partly Cloudy SCT042 71.6 66.2 83% 30 0.0
16 05:45 W 8 G 14 10.00 Partly Cloudy SCT042 SCT048 71.6 64.4 78% 29.99 0.0
16 05:25 Vrbl 7 G 17 10.00 Mostly Cloudy BKN042 BKN050 BKN060 71.6 64.4 78% 29.99 0.0
16 05:05 SW 9 G 17 10.00 A Few Clouds FEW042 FEW050 71.6 64.4 78% 29.98 0.0
16 04:45 SW 13 10.00 A Few Clouds FEW041 FEW050 FEW055 71.6 64.4 78% 29.97 0.0
16 04:25 SW 8 10.00 A Few Clouds FEW050 FEW055 69.8 62.6 78% 29.98 0.0
16 04:05 SW 10 G 20 10.00 A Few Clouds FEW040 FEW080 71.6 62.6 73% 29.99 0.0
16 03:45 SW 17 G 23 10.00 Mostly Cloudy SCT040 BKN048 BKN055 73.4 60.8 65% 29.99 0.0
16 03:25 Vrbl 7 G 15 10.00 Partly Cloudy SCT043 SCT049 75.2 60.8 61% 77 29.99 0.0
16 03:05 SW 8 10.00 A Few Clouds FEW042 73.4 60.8 65% 30 0.0
16 02:45 SW 8 10.00 Fair CLR 73.4 59 61% 30 0.0
16 02:25 SW 7 10.00 Fair CLR 73.4 59 61% 30 0.0
16 02:05 SW 7 10.00 Fair CLR 71.6 59 65% 30 0.0
16 01:45 SW 7 10.00 A Few Clouds FEW075 73.4 59 61% 30.01 0.0
16 01:25 W 3 10.00 Partly Cloudy SCT075 73.4 59 61% 30.01 0.0
16 01:05 Vrbl 3 10.00 Fair CLR 73.4 60.8 65% 30.01 0.0
16 00:45 Vrbl 5 10.00 Fair CLR 73.4 60.8 65% 30.01 0.0
16 00:25 W 6 10.00 Fair CLR 75.2 59 57% 78 30.01 0.0
16 00:05 Vrbl 7 G 14 10.00 Mostly Cloudy BKN095 75.2 59 57% 78 30.01 0.0
15 23:45 Vrbl 7 G 14 10.00 Partly Cloudy SCT095 75.2 59 57% 78 30.01 0.0
15 23:25 Vrbl 7 10.00 Fair CLR 75.2 60.8 61% 77 30.01 0.0
15 23:05 W 8 G 14 10.00 Fair CLR 77 60.8 57% 79 30.02 0.0
15 22:45 SW 7 10.00 Fair CLR 75.2 60.8 61% 77 30.01 0.0
15 22:25 SW 6 10.00 Fair CLR 75.2 60.8 61% 77 30.02 0.0
15 22:05 SW 5 10.00 Fair CLR 77 60.8 57% 79 30.01 0.0
15 21:45 W 6 10.00 A Few Clouds FEW090 77 60.8 57% 79 30.02 0.0
15 21:25 W 5 10.00 A Few Clouds FEW090 77 60.8 57% 79 30.01 0.0
15 21:05 W 5 10.00 Fair CLR 77 60.8 57% 79 30.01 0.0
15 20:45 W 5 10.00 Fair CLR 78.8 60.8 54% 80 30.01 0.0
15 20:25 Vrbl 5 10.00 Fair CLR 78.8 60.8 54% 80 30.01 0.0
15 20:05 Vrbl 5 G 13 10.00 Fair CLR 80.6 60.8 51% 81 30.01 0.0
15 19:45 W 9 G 17 10.00 Fair CLR 82.4 60.8 48% 83 30.01 0.0
15 19:25 W 9 G 17 10.00 Fair CLR 82.4 60.8 48% 83 30 0.0
15 19:05 W 12 10.00 Fair CLR 82.4 60.8 48% 83 30 0.0
15 18:45 Vrbl 7 G 16 10.00 Fair CLR 84.2 60.8 45% 84 30 0.0
15 18:25 W 10 G 21 10.00 Fair CLR 84.2 59 43% 84 30 0.0
15 18:05 W 9 G 23 10.00 Fair CLR 84.2 59 43% 84 30 0.0
15 17:45 W 9 G 26 10.00 Fair CLR 86 59 40% 85 30 0.0
15 17:25 W 8 G 17 10.00 Fair CLR 86 60.8 43% 86 30 0.0
15 17:05 W 10 G 21 10.00 Fair CLR 86 60.8 43% 86 30.01 0.0
15 16:45 W 10 G 21 10.00 Fair CLR 86 60.8 43% 86 30.02 0.0
15 16:25 W 10 G 17 10.00 Fair CLR 86 60.8 43% 86 30.02 0.0
15 16:05 W 16 G 23 10.00 Fair CLR 86 59 40% 85 30.03 0.0
15 15:45 W 16 G 24 10.00 Fair CLR 84.2 59 43% 84 30.04 0.0
15 15:25 W 13 G 18 10.00 Fair CLR 87.8 60.8 40% 88 30.04 0.0
15 15:05 SW 15 G 23 10.00 Fair CLR 86 59 40% 85 30.05 0.0
15 14:45 SW 14 G 21 10.00 Fair CLR 86 60.8 43% 86 30.06 0.0
15 14:25 W 10 G 20 10.00 Fair CLR 86 59 40% 85 30.07 0.0
15 14:05 W 12 10.00 NULL NULL 84.2 59 43% 84 30.07 0.0
15 13:45 W 10 G 18 10.00 Fair CLR 82.4 62.6 51% 83 30.08 0.0
15 13:25 W 15 G 22 10.00 Fair CLR 84.2 62.6 48% 85 30.09 0.0
15 13:05 W 8 G 20 10.00 Fair CLR 82.4 62.6 51% 83 30.09 0.0
15 12:45 SW 12 G 18 10.00 Fair CLR 82.4 64.4 55% 84 30.09 0.0
15 12:25 Vrbl 7 G 22 10.00 Fair CLR 80.6 64.4 58% 82 30.09 0.0
15 12:05 W 12 G 23 10.00 Fair CLR 80.6 66.2 62% 83 30.1 0.0
15 11:45 W 9 G 20 10.00 Fair CLR 78.8 66.2 65% 81 30.11 0.0
15 11:25 W 9 G 22 10.00 Fair CLR 78.8 66.2 65% 81 30.11 0.0
15 11:05 W 13 G 22 10.00 A Few Clouds FEW026 78.8 64.4 61% 81 30.12 0.0
15 10:45 SW 12 G 18 10.00 Partly Cloudy SCT026 78.8 64.4 61% 81 30.12 0.0
15 10:25 Vrbl 6 G 20 10.00 Partly Cloudy SCT024 77 62.6 61% 79 30.12 0.0
15 10:05 Vrbl 7 G 20 10.00 Fair CLR 77 62.6 61% 79 30.12 0.0
15 09:45 Vrbl 7 G 16 10.00 Fair CLR 75.2 62.6 65% 77 30.12 0.0
15 09:25 SW 9 G 15 10.00 A Few Clouds FEW024 FEW029 75.2 60.8 61% 77 30.13 0.0
15 09:05 Vrbl 7 G 13 10.00 Mostly Cloudy SCT022 BKN028 73.4 62.6 69% 30.13 0.0
15 08:45 SW 9 10.00 A Few Clouds FEW022 73.4 60.8 65% 30.13 0.0
15 08:25 SW 6 G 15 10.00 Partly Cloudy SCT016 SCT021 71.6 60.8 69% 30.12 0.0
15 08:05 W 6 G 14 10.00 Mostly Cloudy BKN016 69.8 60.8 73% 30.12 0.0
15 07:45 SW 8 10.00 Partly Cloudy SCT018 69.8 60.8 73% 30.12 0.0
15 07:25 SW 7 10.00 Fair CLR 66.2 60.8 83% 30.12 0.0
15 07:05 SW 7 10.00 A Few Clouds FEW018 66.2 60.8 83% 30.11 0.0
15 06:45 SW 7 10.00 Fair CLR 66.2 60.8 83% 30.11 0.0
15 06:25 SW 7 10.00 A Few Clouds FEW035 64.4 60.8 88% 30.1 0.0
15 06:05 SW 7 10.00 Partly Cloudy SCT034 64.4 60.8 88% 30.11 0.0
15 05:45 SW 6 10.00 A Few Clouds FEW033 62.6 60.8 94% 30.11 0.0
15 05:25 SW 7 10.00 A Few Clouds FEW033 FEW039 62.6 60.8 94% 30.11 0.0
15 05:05 SW 7 10.00 Partly Cloudy SCT032 SCT045 62.6 62.6 100% 30.11 0.0
15 04:45 Vrbl 7 10.00 Partly Cloudy FEW031 SCT050 64.4 62.6 94% 30.11 0.0
15 04:25 SW 7 10.00 Mostly Cloudy FEW033 FEW040 BKN050 64.4 62.6 94% 30.1 0.0
15 04:05 SW 6 10.00 A Few Clouds FEW031 64.4 62.6 94% 30.1 0.0
15 03:45 Vrbl 7 10.00 Partly Cloudy SCT028 64.4 62.6 94% 30.1 0.0
15 03:25 Vrbl 7 10.00 A Few Clouds FEW110 64.4 62.6 94% 30.1 0.0
15 03:05 SW 9 10.00 Mostly Cloudy BKN110 66.2 62.6 88% 30.1 0.0
15 02:45 SW 9 G 15 10.00 Overcast OVC100 66.2 62.6 88% 30.11 0.0
15 02:25 SW 8 G 15 10.00 Overcast OVC100 68 60.8 78% 30.1 0.0
15 02:05 SW 8 10.00 Partly Cloudy SCT100 68 60.8 78% 30.11 0.0
15 01:45 SW 9 10.00 A Few Clouds FEW110 68 62.6 83% 30.1 0.0
15 01:25 SW 9 G 15 10.00 Partly Cloudy SCT110 69.8 62.6 78% 30.11 0.0
15 01:05 W 8 G 14 10.00 Partly Cloudy SCT110 69.8 64.4 83% 30.11 0.0
15 00:45 W 8 G 17 10.00 A Few Clouds FEW110 69.8 62.6 78% 30.1 0.0
15 00:25 W 8 G 14 10.00 Fair CLR 71.6 62.6 73% 30.1 0.0
15 00:05 Vrbl 7 G 15 10.00 Fair CLR 71.6 60.8 69% 30.1 0.0
14 23:45 Vrbl 7 G 14 10.00 A Few Clouds FEW120 73.4 59 61% 30.1 0.0
14 23:25 Vrbl 7 10.00 Partly Cloudy SCT120 73.4 59 61% 30.09 0.0
14 23:05 W 6 10.00 Fair CLR 73.4 59 61% 30.1 0.0
14 22:45 W 7 10.00 Fair CLR 73.4 59 61% 30.1 0.0
14 22:25 Vrbl 6 10.00 Fair CLR 73.4 62.6 69% 30.1 0.0
14 22:05 SW 6 10.00 Fair CLR 75.2 62.6 65% 77 30.1 0.0
14 21:45 SW 6 10.00 Fair CLR 73.4 62.6 69% 30.1 0.0
14 21:25 W 6 10.00 Fair CLR 75.2 62.6 65% 77 30.1 0.0
14 21:05 W 5 10.00 Fair CLR 75.2 62.6 65% 77 30.11 0.0
14 20:45 Vrbl 6 10.00 Fair CLR 77 60.8 57% 79 30.11 0.0
14 20:25 Vrbl 6 10.00 Fair CLR 77 60.8 57% 79 30.12 0.0
14 20:05 Vrbl 7 10.00 Fair CLR 78.8 60.8 54% 80 30.12 0.0
14 19:45 Vrbl 7 G 14 10.00 Fair CLR 78.8 60.8 54% 80 30.13 0.0
14 19:25 Vrbl 6 10.00 Fair CLR 80.6 60.8 51% 81 30.13 0.0
14 19:05 Vrbl 7 G 14 10.00 Fair CLR 80.6 60.8 51% 81 30.13 0.0
14 18:45 Vrbl 5 G 13 10.00 Fair CLR 80.6 60.8 51% 81 30.13 0.0
14 18:25 Vrbl 6 G 17 10.00 Fair CLR 80.6 60.8 51% 81 30.13 0.0
14 18:05 W 8 G 15 10.00 Fair CLR 82.4 59 45% 82 30.13 0.0
14 17:45 Vrbl 7 G 15 10.00 Fair CLR 82.4 59 45% 82 30.14 0.0
14 17:25 W 8 G 15 10.00 Fair CLR 84.2 59 43% 84 30.13 0.0
14 17:05 W 9 G 15 10.00 Fair CLR 84.2 55.4 37% 83 30.13 0.0
14 16:45 W 8 G 15 10.00 Fair CLR 84.2 53.6 35% 83 30.13 0.0
14 16:25 W 9 10.00 Fair CLR 84.2 55.4 37% 83 30.14 0.0
14 16:05 W 8 G 18 10.00 Fair CLR 84.2 55.4 37% 83 30.15 0.0
14 15:45 W 8 G 17 10.00 Fair CLR 84.2 55.4 37% 83 30.16 0.0
14 15:25 W 8 G 15 10.00 Fair CLR 84.2 55.4 37% 83 30.16 0.0
14 15:05 W 8 G 14 10.00 Fair CLR 84.2 55.4 37% 83 30.16 0.0
14 14:45 Vrbl 7 G 14 10.00 Fair CLR 84.2 57.2 40% 83 30.17 0.0
14 14:25 SW 13 G 20 10.00 Fair CLR 84.2 57.2 40% 83 30.18 0.0
14 14:05 Vrbl 7 G 17 10.00 Fair CLR 84.2 59 43% 84 30.18 0.0
14 13:45 Vrbl 7 G 14 9.00 Fair CLR 82.4 59 45% 82 30.19 0.0
14 13:25 W 8 G 17 10.00 A Few Clouds FEW042 FEW055 82.4 62.6 51% 83 30.2 0.0
14 13:05 W 10 10.00 Partly Cloudy FEW041 SCT055 80.6 60.8 51% 81 30.21 0.0
14 12:45 W 8 10.00 A Few Clouds FEW041 78.8 62.6 58% 80 30.22 0.0
14 12:25 W 9 G 15 10.00 A Few Clouds FEW036 FEW044 FEW055 80.6 62.6 54% 82 30.22 0.0
14 12:05 Vrbl 6 G 12 10.00 Partly Cloudy SCT034 SCT042 SCT055 78.8 64.4 61% 81 30.22 0.0
14 11:45 W 9 10.00 Mostly Cloudy BKN033 BKN041 BKN060 77 64.4 65% 79 30.22 0.0
14 11:25 W 8 G 14 10.00 Mostly Cloudy BKN034 BKN039 BKN055 78.8 64.4 61% 81 30.22 0.0
14 11:05 Vrbl 7 10.00 Mostly Cloudy BKN034 BKN039 BKN055 77 62.6 61% 79 30.22 0.0
14 10:45 Vrbl 7 G 15 10.00 Partly Cloudy SCT034 77 62.6 61% 79 30.22 0.0
14 10:25 Vrbl 7 G 13 10.00 Mostly Cloudy BKN032 BKN041 77 64.4 65% 79 30.22 0.0
14 10:05 Vrbl 5 G 12 10.00 A Few Clouds FEW030 FEW041 77 64.4 65% 79 30.22 0.0
14 09:45 Vrbl 7 10.00 Fair CLR 77 66.2 69% 79 30.22 0.0
14 09:25 Vrbl 5 10.00 Fair CLR 75.2 66.2 74% 77 30.23 0.0
14 09:05 Vrbl 5 10.00 Fair CLR 75.2 64.4 69% 77 30.23 0.0
14 08:45 Vrbl 5 10.00 Fair CLR 73.4 64.4 74% 30.23 0.0
14 08:25 SW 5 10.00 Fair CLR 71.6 64.4 78% 30.23 0.0
14 08:05 SW 7 10.00 Fair CLR 69.8 64.4 83% 30.23 0.0
14 07:45 SW 6 10.00 Fair CLR 68 64.4 88% 30.23 0.0
14 07:25 SW 6 10.00 Mostly Cloudy FEW037 SCT060 BKN065 68 64.4 88% 30.23 0.0
14 07:05 SW 6 10.00 Mostly Cloudy FEW043 BKN060 68 64.4 88% 30.22 0.0
Date Time (edt) Wind (mph) Vis. (mi.) Weather Sky Cond. Air Dwpt Max. Min. Relative Humidity Wind Chill (°F) Heat Index (°F) altimeter (in) sea level (mb) 1 hr 3 hr 6 hr
6 hour
Temperature (ºF) Pressure Precipitation (in)